Location: Lake Crest
(37.6062°N, 88.9176°W)
Time: 03:37:36
(UTC+00:00)

Okean 1-7 - Pass Details

Date: 15 December 2019
Orbit: 590 x 619 km, 82.5° (Epoch: 27 January)

Event Time Altitude Azimuth Distance (km) Brightness Sun altitude
Exits shadow 11:11:41 24° 213° (SSW) 1,276 4.5 -21.4°
Drops below altitude 10° 11:13:38 10° 198° (SSW) 1,961 5.6 -21.0°
Sets 11:15:55 0° 191° (S) 2,856 6.5 -20.5°
